date,time,DOY,Ta_1_1_1,RH_1_1_1,LWin_1_1_1,LWout_1_1_1,SWin_1_1_1,SWout_1_1_1,PPFD_1_1_1,SWC_1_1_1,Ts_1_1_1
[yyyy-mm-dd],[HH:MM],[ddd.ddd],[K],[%],[W+1m-2],[W+1m-2],[W+1m-2],[W+1m-2],[µmol+1m-2s-1],[m+3m-3],[K]
2014-05-02,00:30,122.020,274.96899999999994,99.998000000000005,-6.4756666666666671,-2.4983333333333326,-0.52700000000000002,-0.46766666666666695,-6.16666666666667099E-002,0.40000000000000019,273.40833333333325
2014-05-02,01:00,122.041,274.92366666666663,99.997692307692304,-6.4323333333333341,-2.4833333333333334,-0.53566666666666662,-0.47833333333333344,-3.76666666666666886E-002,0.40000000000000019,273.40733333333333
2014-05-02,01:30,122.062,274.90066666666661,99.999166666666667,-6.0076666666666672,-2.2256666666666671,-0.46100000000000002,-0.42800000000000010,-5.46666666666666898E-002,0.40000000000000019,273.41033333333331
2014-05-02,02:00,122.083,274.84166666666675,99.997333333333330,-6.2166666666666668,-2.7206666666666668,-0.46966666666666673,-0.47633333333333339,-6.73333333333333700E-002,0.40000000000000019,273.40966666666657
2014-05-02,02:30,122.104,274.81066666666680,99.998888888888885,-6.3206666666666678,-2.5569999999999995,-0.51466666666666672,-0.50400000000000011,-6.66666666666666935E-002,0.40000000000000019,273.40766666666661
2014-05-02,03:00,122.124,274.74633333333344,99.998461538461541,-6.0213333333333328,-2.6469999999999994,-0.46433333333333332,-0.46533333333333338,-6.26666666666667038E-002,0.40000000000000019,273.41099999999994
2014-05-02,03:30,122.145,274.68733333333336,99.999444444444450,-6.0063333333333322,-2.6766666666666667,-0.45466666666666666,-0.45966666666666678,-6.76666666666667083E-002,0.40000000000000019,273.41166666666669
2014-05-02,04:00,122.166,274.67366666666663,99.998500000000007,-6.3886666666666674,-2.7626666666666666,-0.52499999999999991,-0.53900000000000003,-5.40000000000000271E-002,0.40000000000000019,273.40899999999993
2014-05-02,04:30,122.187,274.65966666666657,99.998235294117649,-6.8106666666666671,-2.7656666666666667,-0.60833333333333328,-0.60799999999999998,3.53333333333333346E-002,0.40000000000000019,273.41266666666667
2014-05-02,05:00,122.208,274.62433333333331,99.998181818181820,-6.8746666666666680,-2.5703333333333331,-0.44866666666666671,0.99366666666666648,3.3076666666666670,0.40000000000000019,273.41099999999994
2014-05-02,05:30,122.229,274.62299999999999,99.997777777777785,-6.5529999999999999,-2.2756666666666661,0.32300000000000006,6.6923333333333348,15.149666666666668,0.40000000000000019,273.41133333333329
2014-05-02,06:00,122.249,274.68633333333327,99.997894736842113,-5.9826666666666659,-2.1689999999999996,2.0576666666666670,19.638999999999999,43.381999999999991,0.40000000000000019,273.41500000000002
2014-05-02,06:30,122.270,274.71933333333334,99.998750000000001,-5.7786666666666688,-2.3736666666666668,3.4073333333333338,31.226333333333333,70.396666666666675,0.40000000000000019,273.41500000000002
2014-05-02,07:00,122.291,274.81466666666677,99.999411764705883,-5.9073333333333329,-2.6330000000000009,3.9873333333333343,42.690666666666665,98.045999999999992,0.39933333333333348,273.41500000000002
2014-05-02,07:30,122.312,274.92500000000001,99.998666666666665,-6.0040000000000004,-3.1316666666666673,6.2673333333333323,67.156666666666680,152.88600000000000,0.39733333333333359,273.41533333333331
2014-05-02,08:00,122.333,275.07700000000006,99.996875000000003,-6.1756666666666673,-3.4579999999999989,10.635999999999999,110.96466666666667,248.55900000000003,0.40000000000000019,273.42033333333336
2014-05-02,08:30,122.354,275.24699999999996,99.997142857142862,-6.2636666666666656,-4.2233333333333327,12.416333333333334,129.27766666666668,291.50766666666664,0.39633333333333343,273.42400000000004
2014-05-02,09:00,122.374,275.55333333333328,100.00000000000000,-6.3760000000000021,-5.8259999999999987,20.560666666666670,203.91266666666661,446.34566666666677,0.40000000000000019,273.42466666666667
2014-05-02,09:30,122.395,275.92533333333330,99.998999999999995,-6.9156666666666657,-6.1053333333333342,24.339333333333336,238.93633333333338,519.38533333333328,0.40000000000000019,273.42966666666666
2014-05-02,10:00,122.416,275.91933333333333,99.998999999999995,-6.2723333333333340,-4.4530000000000012,18.937999999999999,184.22933333333333,406.77166666666659,0.40000000000000019,273.43766666666664
2014-05-02,10:30,122.437,276.35366666666664,100.00000000000000,-6.4733333333333336,-3.1173333333333342,31.413666666666675,304.46900000000005,652.73966666666672,0.40000000000000019,273.43499999999989
2014-05-02,11:00,122.458,276.45766666666663,100.00000000000000,-6.4613333333333340,-4.5433333333333339,32.232666666666667,314.42799999999988,665.91899999999998,0.40000000000000019,273.43833333333333
2014-05-02,11:30,122.479,276.67166666666668,99.998333333333335,-6.5333333333333332,-5.5253333333333341,25.252999999999997,238.61333333333329,526.43733333333330,0.40000000000000019,273.43999999999994
2014-05-02,12:00,122.499,277.60233333333332,100.00000000000000,-6.0506666666666673,-6.0173333333333323,54.671000000000006,505.74933333333337,1047.8946666666668,0.40000000000000019,273.44299999999998
2014-05-02,12:30,122.520,278.39533333333333,87.274285714285710,-6.6650000000000009,-7.6116666666666664,47.319333333333333,436.33733333333333,912.08933333333323,0.40533333333333338,273.44466666666654
2014-05-02,13:00,122.541,279.26766666666668,75.414000000000016,-4.7259999999999991,-7.1441666666666661,78.329333333333309,697.44900000000007,1421.1313333333335,0.41000000000000009,273.44833333333321
2014-05-02,13:30,122.562,280.01566666666662,68.005666666666656,-6.8963999999999999,-9999.0,66.097333333333339,571.97799999999995,1174.2713333333334,0.41000000000000009,273.45266666666663
2014-05-02,14:00,122.583,280.67800000000000,62.199333333333342,-6.1443478260869577,-9999.0,73.223666666666688,633.07933333333324,1288.2093333333330,0.41233333333333338,273.44799999999992
2014-05-02,14:30,122.604,281.31133333333344,57.821999999999996,-7.1960000000000006,-9999.0,64.598666666666659,552.91166666666663,1128.9736666666663,0.41999999999999998,273.45600000000002
2014-05-02,15:00,122.624,281.77700000000004,54.598000000000006,-6.7370000000000001,-9999.0,73.998333333333349,625.59600000000000,1270.4863333333333,0.41999999999999998,273.45766666666674
2014-05-02,15:30,122.645,282.16866666666664,51.928999999999988,-7.0379999999999994,-9999.0,59.994000000000007,510.50400000000002,1039.2943333333335,0.41999999999999998,273.45799999999997
2014-05-02,16:00,122.666,282.20333333333332,50.651666666666671,-9999.0,-9999.0,41.668000000000006,363.50333333333339,749.49933333333331,0.41999999999999998,273.45900000000000
2014-05-02,16:30,122.687,282.19633333333331,51.242333333333342,-9999.0,-9999.0,16.355000000000004,149.74799999999999,316.99433333333332,0.41999999999999998,273.45066666666662
2014-05-02,17:00,122.708,281.98400000000009,51.329000000000001,-9999.0,-9999.0,5.5449999999999990,55.663333333333341,127.17733333333335,0.41999999999999998,273.44166666666661
2014-05-02,17:30,122.729,281.71566666666661,53.626999999999995,-9999.0,-9999.0,3.3473333333333333,37.649333333333324,89.156999999999982,0.41133333333333344,273.43533333333323
2014-05-02,18:00,122.749,281.52666666666670,54.201666666666668,-9999.0,-9999.0,3.1283333333333330,30.759666666666661,69.355333333333348,0.41000000000000009,273.43433333333331
2014-05-02,18:30,122.770,281.24633333333327,55.842666666666666,-9999.0,-9999.0,0.63566666666666627,10.961000000000000,27.523666666666664,0.41000000000000009,273.43066666666675
2014-05-02,19:00,122.791,280.57766666666674,64.244333333333330,-9999.0,-9999.0,-0.36899999999999988,2.2566666666666668,8.9693333333333332,0.41000000000000009,273.42900000000009
2014-05-02,19:30,122.812,279.89733333333334,75.596333333333348,-9999.0,-9999.0,-0.18333333333333338,-0.78266666666666651,1.5456666666666663,0.41000000000000009,273.42833333333334
2014-05-02,20:00,122.833,279.60966666666667,78.270999999999987,-9999.0,-9999.0,-0.23833333333333329,-1.7820000000000000,7.99999999999998802E-003,0.40500000000000019,273.42633333333339
2014-05-02,20:30,122.854,279.21433333333334,80.504333333333321,-9999.0,-9999.0,-0.31366666666666670,-1.6593333333333329,-5.63333333333333602E-002,0.40000000000000019,273.42733333333331
2014-05-02,21:00,122.874,278.93533333333340,82.520333333333340,-9999.0,-9999.0,3.79999999999999921E-002,-2.5583333333333331,-6.33333333333333665E-002,0.40000000000000019,273.42500000000007
2014-05-02,21:30,122.895,278.69800000000004,84.225666666666669,-9999.0,-9999.0,-0.16833333333333336,-1.4873333333333334,-4.73333333333333592E-002,0.40000000000000019,273.42900000000003
2014-05-02,22:00,122.916,278.47833333333341,86.125333333333330,-9999.0,-9999.0,-0.23599999999999993,-2.0430000000000001,-6.43333333333333812E-002,0.40000000000000019,273.43033333333329
2014-05-02,22:30,122.937,278.21400000000006,87.570333333333352,-9999.0,-9999.0,-0.26266666666666671,-2.0863333333333327,-6.70000000000000179E-002,0.40000000000000019,273.43366666666662
2014-05-02,23:00,122.958,277.64566666666667,90.876333333333349,-9999.0,-9999.0,-0.44999999999999990,-1.7806666666666666,-7.00000000000000344E-002,0.40000000000000019,273.43400000000003
2014-05-02,23:30,122.979,277.53700000000009,92.132666666666651,-9999.0,-9999.0,-0.52600000000000002,-1.1850000000000001,-6.90000000000000197E-002,0.40000000000000019,273.43500000000000
2014-05-03,00:00,123.000,277.42466666666672,93.658000000000001,-9.3299999999999983,-6.8583333333333334,-0.32099999999999990,-1.7359999999999998,-7.23333333333333467E-002,0.40000000000000019,273.43766666666659
